Location: Bacea
(45.9500°N, 22.6667°E)
Time: 00:13:42
(UTC+00:00)

Cosmos 2263 Rocket - Pass Details

Date: 16 October 2021
Orbit: 825 x 847 km, 71.0° (Epoch: 05 December)

Event Time Altitude Azimuth Distance (km) Brightness Sun altitude
Rises 17:20:03 0° 334° (NNW) 3,375 5.8 -17.9°
Reaches altitude 10° 17:22:30 10° 337° (NNW) 2,437 5.0 -18.3°
Maximum altitude 17:28:05 72° 62° (ENE) 870 2.1 -19.3°
Enters shadow 17:31:16 26° 142° (SE) 1,564 3.2 -19.8°
